This is the latest recevied weather packets stored in our database for station/object WE8L. If no packets are shown the sender has not sent any weather packets the latest 10 day(s).
| Time | Temp. | Humidity | Pressure | Rain* | Wind** | Luminosity | Snow |
|---|---|---|---|---|---|---|---|
| 1777496789 | 17.22° C | 66% | 1012.9 hPa | 0 mm | - | 64 W/m² | - |
| 1777496486 | 17.78° C | 63% | 1012.9 hPa | 0 mm | - | 73 W/m² | - |
| 1777496182 | 18.33° C | 64% | 1012.9 hPa | 0 mm | - | 86 W/m² | - |
| 1777495878 | 17.78° C | 66% | 1012.9 hPa | 0 mm | - | 254 W/m² | - |
| 1777495574 | 17.78° C | 67% | 1012.9 hPa | 0 mm | - | 88 W/m² | - |
| 1777495270 | 18.33° C | 66% | 1013 hPa | 0 mm | - | 258 W/m² | - |
| 1777494968 | 17.78° C | 67% | 1012.8 hPa | 0 mm | - | 206 W/m² | - |
| 1777494665 | 17.78° C | 68% | 1012.9 hPa | 0 mm | - | 62 W/m² | - |
| 1777494362 | 17.22° C | 71% | 1013 hPa | 0 mm | - | 88 W/m² | - |
| 1777494058 | 16.67° C | 73% | 1013.1 hPa | 0 mm | - | 115 W/m² | - |
| 1777493756 | 16.67° C | 72% | 1013 hPa | 0 mm | - | 93 W/m² | - |
| 1777493454 | 16.67° C | 71% | 1013 hPa | 0 mm | - | 91 W/m² | - |
| 1777493149 | 16.67° C | 73% | 1013.1 hPa | 0 mm | - | 52 W/m² | - |
| 1777492847 | 17.22° C | 73% | 1013 hPa | 0 mm | - | 79 W/m² | - |
| 1777492543 | 17.78° C | 72% | 1013.1 hPa | 0 mm | - | 85 W/m² | - |
| 1777492239 | 17.22° C | 72% | 1012.9 hPa | 0 mm | - | 139 W/m² | - |
| 1777491937 | 17.22° C | 73% | 1013 hPa | 0 mm | - | 123 W/m² | - |
| 1777491632 | 17.78° C | 72% | 1012.9 hPa | 0 mm | - | 106 W/m² | - |
| 1777491330 | 17.78° C | 72% | 1012.9 hPa | 0 mm | - | 147 W/m² | - |
| 1777491027 | 17.22° C | 74% | 1012.9 hPa | 0 mm | - | 166 W/m² | - |
| 1777490722 | 16.67° C | 76% | 1012.8 hPa | 0 mm | - | 108 W/m² | - |
| 1777490420 | 16.67° C | 77% | 1012.9 hPa | 0 mm | - | 117 W/m² | - |
| 1777490116 | 16.67° C | 77% | 1013 hPa | 0 mm | - | 80 W/m² | - |
| 1777489814 | 16.67° C | 78% | 1012.9 hPa | 0 mm | - | 94 W/m² | - |
| 1777489511 | 16.67° C | 79% | 1012.9 hPa | 0 mm | - | 173 W/m² | - |
* Rain latest hour (hover to see other rain measurements)
** Current wind speed in m/s (hover to see current wind gust speed)